Temperature
21 21 21 21 24 25 24 24 24 24 24 23 22 23 23 23 23 21 18 18 18 17 17 18 18 18 18 18 18 18 18 18 17 18 17 17 17 17 17 17 17 17 17 17 17 17 17 17 17
21 21 21 23 25 25 24 24 24 24 23 22 22 23 23 22 20 19 18 17 17 17 17 17 18 18 17 17 18 18 17 17 17 17 17 17 17 17 17 17 17 17 17 17 17 17 17 17 17
21 21 22 25 25 25 24 24 24 23 22 23 23 22 22 21 19 19 18 17 17 17 17 17 17 17 17 17 17 17 17 17 17 17 17 17 17 17 17 17 17 17 17 17 17 17 17 17 17
21 22 23 25 24 24 24 24 24 23 23 22 23 22 21 19 19 18 18 17 17 17 17 17 17 17 17 17 17 17 17 17 17 17 17 17 17 17 17 17 17 17 17 17 17 17 17 17 17
21 23 25 25 24 24 25 24 24 24 24 23 23 23 21 18 18 18 18 17 17 17 17 17 17 17 17 17 17 17 17 17 17 17 17 17 17 17 17 17 17 17 17 17 17 17 17 17 17
23 25 25 24 24 24 24 24 24 24 23 22 22 22 20 18 18 18 18 17 17 17 17 17 17 17 17 17 17 17 17 17 17 17 17 17 17 17 17 17 17 17 17 17 17 17 17 17 17
24 25 24 24 24 24 24 23 24 24 23 23 22 22 20 19 18 18 17 17 17 17 17 17 17 17 17 17 17 17 17 17 17 17 17 17 17 17 17 17 17 17 17 17 17 17 17 16 16
22 25 24 24 24 24 24 23 23 23 23 21 22 23 21 19 18 18 17 17 17 17 17 17 17 17 17 17 17 17 17 17 17 17 17 17 17 17 16 16 16 16 17 17 16 16 16 16 16
22 25 24 24 24 24 24 23 22 22 22 21 21 21 20 19 18 18 17 17 17 17 17 17 17 17 17 17 17 17 17 17 17 17 17 16 16 16 16 16 16 16 16 16 16 16 16 16 16
24 24 24 24 24 24 23 23 23 23 23 22 21 20 19 19 18 18 18 18 18 17 17 17 17 17 17 17 17 17 16 16 16 16 16 16 16 16 16 16 16 16 16 16 16 16 16 16 15
24 24 24 24 23 23 23 23 22 23 23 22 22 20 19 19 18 18 18 18 18 18 17 17 17 17 17 17 17 17 17 16 16 16 16 16 16 16 16 16 16 16 16 16 16 16 15 15 16
24 24 24 24 23 23 23 23 22 22 22 21 21 20 19 19 19 19 18 18 18 18 17 17 17 17 17 17 17 17 17 17 17 17 16 16 16 16 16 16 16 15 15 15 15 15 15 15 15
24 24 23 23 22 22 22 22 22 21 21 20 20 20 19 19 19 19 19 18 18 18 17 17 17 17 17 17 17 17 17 17 17 16 16 16 16 16 16 16 16 15 15 15 15 15 15 15 15
24 23 23 23 23 23 23 22 22 21 20 20 20 20 19 19 19 19 18 18 18 18 18 17 17 17 17 17 17 17 17 17 17 16 16 16 16 16 16 16 15 15 15 15 15 15 15 15 15
23 24 24 23 23 23 23 23 22 21 20 20 20 20 19 19 19 19 19 19 18 18 18 17 17 17 17 17 17 17 16 17 16 16 16 16 16 16 16 16 15 15 15 15 15 15 15 15 15
24 24 24 24 23 23 23 23 23 21 21 21 20 20 19 19 19 19 19 18 18 18 18 17 17 17 17 17 17 17 16 16 16 16 16 16 16 16 15 15 15 15 15 15 15 15 15 15 15
24 24 24 23 23 23 24 23 23 21 21 21 21 20 20 19 19 19 19 18 18 18 18 17 17 17 17 17 16 16 16 16 16 16 16 16 16 16 15 15 15 15 15 15 15 15 15 15 14
24 24 24 24 23 23 23 23 23 21 21 21 21 20 20 20 19 19 18 18 18 18 18 17 17 17 16 16 16 16 16 16 16 16 16 16 15 15 15 15 15 15 15 14 14 14 14 14 14
24 24 24 23 23 23 23 23 23 22 21 21 21 21 20 20 19 18 18 18 18 17 17 17 17 17 16 16 16 16 16 16 16 16 15 15 15 15 15 15 15 15 14 14 14 14 14 14 14
24 24 24 23 23 23 23 23 23 23 22 21 21 21 20 20 19 18 18 17 17 17 17 17 17 17 16 16 16 16 16 15 15 15 15 15 15 15 15 14 14 14 14 14 14 14 14 14 14
24 24 24 23 23 23 23 23 23 23 22 21 20 20 20 19 19 18 18 17 17 17 17 17 17 16 16 16 16 15 15 15 15 15 15 15 15 15 14 14 14 14 14 14 14 14 14 14 13
23 24 23 23 23 23 23 23 23 23 23 22 21 20 20 19 19 18 17 17 17 17 17 17 16 16 16 16 16 15 15 15 15 15 15 15 15 14 14 14 14 14 14 14 14 14 13 13 13
23 23 23 23 23 23 23 23 24 23 23 23 22 20 20 19 18 18 17 17 17 16 16 16 16 16 16 16 15 15 15 15 15 15 15 14 14 14 14 14 14 14 14 14 14 14 13 13 13
23 23 23 23 23 23 23 23 23 23 23 23 22 21 19 19 18 17 17 17 16 16 16 16 16 16 16 15 15 15 15 15 14 14 14 14 14 14 14 14 14 14 14 14 14 13 13 13 13
23 23 23 23 23 23 23 23 23 23 23 22 21 20 19 19 18 17 17 16 16 16 16 16 16 15 15 15 15 15 15 15 14 14 14 14 14 14 13 13 13 13 13 13 13 13 13 13 13
23 24 23 22 22 23 23 23 23 22 21 20 20 20 19 18 18 17 16 16 16 16 16 15 15 15 15 15 15 15 14 14 14 14 14 14 14 13 13 13 13 13 13 13 13 13 13 13 13
23 23 23 23 23 22 23 23 23 22 21 20 20 19 19 18 17 17 16 16 16 16 16 15 15 15 15 15 14 14 14 14 14 14 14 14 13 13 13 13 13 13 13 13 13 13 13 13 12
23 23 23 23 22 22 22 23 23 22 22 21 20 19 19 18 17 16 16 16 15 15 15 15 15 14 14 14 14 14 14 14 14 14 13 13 13 13 13 13 13 13 13 13 13 13 13 12 12
22 22 22 22 22 22 22 22 22 22 22 21 21 20 19 18 17 16 16 15 15 15 15 15 14 14 14 14 14 14 14 13 13 13 13 13 13 13 13 13 13 13 12 12 12 12 12 12 12
22 22 22 22 22 22 22 22 22 22 21 20 20 19 18 17 17 16 15 15 15 14 14 14 14 14 14 13 13 13 13 13 13 13 13 13 13 13 13 13 13 12 12 12 12 12 12 12 12
Wind_Speed
2 1 2 2 2 2 5 4 4 4 4 5 5 4 4 6 5 4 4 4 4 5 6 7 6 6 6 6 6 6 6 6 7 7 8 8 8 8 9 9 9 9 9 9 9 10 9 9 9
1 1 2 2 1 3 5 4 5 5 5 4 4 4 5 6 5 5 5 5 5 6 6 7 7 6 6 6 6 6 6 6 7 7 7 8 8 8 9 9 9 9 9 9 9 9 9 9 9
1 2 1 1 2 3 5 5 6 6 4 2 3 4 4 4 4 4 5 6 6 6 6 8 6 6 6 6 7 7 7 7 7 7 7 7 8 9 9 9 9 9 9 9 9 9 9 9 9
2 2 1 1 5 5 5 5 5 6 4 3 3 5 5 5 3 5 6 6 6 6 6 8 6 5 5 6 6 6 7 7 7 7 7 8 8 9 9 9 9 8 9 9 9 9 10 10 9
1 1 3 4 5 5 5 4 4 4 4 4 4 6 6 5 5 7 7 6 6 6 6 8 6 5 5 5 5 5 6 7 7 7 7 7 8 8 9 8 8 8 9 9 9 9 9 9 9
1 1 3 4 6 5 4 3 4 5 5 5 4 5 5 5 6 6 6 6 6 6 6 7 7 5 4 4 4 5 6 6 6 6 7 7 8 8 8 7 8 8 9 9 9 8 8 9 9
0 1 3 5 5 5 4 2 3 4 4 4 3 4 5 6 6 6 6 6 5 5 5 5 5 6 5 5 5 5 6 6 6 6 7 7 7 7 7 8 8 8 8 8 8 8 8 9 9
1 2 4 4 5 4 4 3 2 2 3 3 1 3 5 7 7 7 6 5 5 5 4 4 4 4 4 6 6 6 6 6 7 7 7 7 7 7 7 7 8 8 8 9 9 8 8 8 8
1 2 4 4 4 4 4 4 3 2 4 3 3 4 6 10 9 7 6 5 5 4 3 3 3 3 3 4 5 6 6 6 6 6 7 4 4 6 7 9 8 8 8 9 9 8 7 6 7
1 2 3 2 2 4 4 3 2 3 3 3 4 5 8 9 8 7 6 5 5 4 3 2 2 2 2 2 3 3 4 4 4 4 4 4 5 5 6 9 8 7 7 8 7 5 3 1 4
1 2 3 3 3 3 4 3 2 2 1 2 4 7 8 8 7 6 5 4 4 3 3 2 1 2 2 2 2 3 3 3 4 4 4 4 4 4 4 4 6 6 4 4 5 3 3 4 5
3 2 2 2 2 3 3 3 3 1 1 2 3 7 9 8 7 6 5 4 3 3 3 2 2 2 2 2 3 3 3 3 3 3 4 3 2 2 3 3 3 3 3 4 3 3 4 4 5
4 3 3 2 3 3 4 3 2 0 1 2 5 7 8 7 6 5 4 3 3 3 3 3 2 2 2 3 2 3 3 3 3 3 3 3 2 2 3 3 3 3 4 3 3 3 4 4 5
3 3 2 3 4 4 4 2 1 1 2 4 6 7 6 6 5 5 4 3 3 3 3 3 3 2 2 2 2 2 2 2 2 3 3 3 3 2 2 3 3 3 3 4 3 4 4 4 4
3 3 3 3 2 2 2 2 1 1 3 4 5 5 5 5 4 4 4 3 3 3 3 3 3 2 2 2 2 2 2 2 3 2 2 3 3 3 3 3 3 3 3 4 4 4 4 3 3
3 3 2 2 1 1 3 1 2 2 4 4 4 4 4 4 4 3 3 3 3 3 3 3 3 3 3 2 2 2 2 3 2 2 2 2 3 4 3 2 2 3 3 3 3 2 3 3 3
4 3 2 2 1 1 3 2 1 2 4 4 4 4 4 4 4 3 3 3 3 2 3 3 3 3 3 3 2 2 3 2 2 2 2 1 2 2 3 2 2 3 2 2 2 2 2 3 3
3 3 2 1 0 2 3 2 1 3 4 4 3 4 4 4 3 3 3 3 3 2 2 3 3 2 3 2 2 2 2 2 2 2 1 1 1 2 2 2 2 3 2 2 2 2 2 2 2
3 3 2 1 1 3 3 2 2 3 4 4 4 3 3 3 4 4 3 3 3 3 2 3 3 3 3 2 2 1 1 1 1 1 1 1 1 1 2 1 2 2 1 1 2 2 3 2 2
4 4 2 1 0 2 2 2 2 3 3 3 3 3 3 3 4 4 3 3 3 3 3 3 3 2 2 2 2 1 1 1 1 1 1 0 1 1 2 2 2 2 1 2 2 2 1 1 0
5 4 3 2 1 3 3 4 4 4 3 3 2 2 3 3 3 4 3 3 3 3 3 3 2 2 3 3 2 2 2 1 1 1 1 0 1 1 1 1 2 2 2 2 2 2 1 1 0
4 2 4 4 5 2 4 3 3 4 4 3 3 3 3 3 3 3 3 3 3 2 2 3 3 2 3 3 3 3 2 2 2 1 1 1 1 2 2 1 2 2 1 2 2 1 1 1 1
2 1 3 5 6 5 4 5 2 4 4 3 3 3 3 3 4 3 3 3 3 2 2 2 3 2 2 3 3 3 3 2 1 2 2 1 1 2 2 1 2 2 2 2 2 2 2 1 2
3 3 3 4 6 6 3 5 2 2 2 2 3 3 3 3 3 3 3 3 3 2 2 2 2 2 2 3 4 4 4 3 3 2 2 2 2 1 2 2 2 2 2 2 2 2 2 2 2
4 5 3 4 4 3 1 4 2 2 2 2 3 3 3 3 4 4 3 3 2 2 2 2 3 3 3 4 4 4 4 4 4 3 3 2 2 2 2 2 2 2 2 2 2 2 2 2 2
5 6 3 3 3 2 3 4 0 2 1 0 1 3 3 4 3 3 3 2 2 2 1 2 2 3 3 3 4 3 4 3 3 3 3 2 2 2 2 2 2 2 2 2 2 2 2 2 2
5 5 4 4 5 5 3 2 2 1 1 1 2 2 3 4 3 3 3 2 2 1 1 1 1 1 2 2 3 3 3 3 3 3 2 2 2 1 2 2 3 2 3 3 3 2 3 2 2
3 3 4 5 4 5 4 4 2 2 2 2 2 2 3 3 3 3 3 2 1 1 1 1 1 1 1 2 2 2 3 3 2 3 3 2 2 2 2 3 3 3 3 3 3 3 2 3 2
5 5 5 5 5 5 4 1 1 1 1 2 2 2 3 4 4 3 3 2 2 1 1 1 1 1 1 1 2 2 2 2 2 2 2 2 2 2 3 3 3 3 3 3 3 3 3 4 3
5 6 7 6 6 6 6 3 3 1 2 2 2 2 2 3 3 3 2 2 2 2 1 1 1 1 1 1 1 1 1 2 2 2 2 2 2 2 2 3 3 3 3 3 4 4 4 4 4
Wind_Direction
246 207 222 239 220 105 75 75 79 88 74 63 59 58 57 43 29 59 89 98 99 110 109 114 105 95 84 85 89 89 89 87 91 89 88 87 86 88 85 84 84 83 82 80 77 74 72 73 76
256 219 231 247 228 109 83 86 89 75 92 98 78 69 67 65 55 85 106 102 110 108 107 100 99 95 87 86 88 89 92 91 93 94 90 88 89 91 86 83 84 81 80 80 77 74 72 72 73
193 248 266 215 82 69 90 97 98 96 105 96 82 62 51 62 76 88 100 118 115 107 105 100 100 97 89 89 89 89 90 96 94 92 90 89 89 91 87 81 80 77 76 77 76 74 72 72 73
241 218 213 131 97 75 87 101 109 116 105 82 95 88 77 62 75 97 114 118 113 110 107 103 102 100 94 90 91 87 88 95 91 85 92 90 89 89 88 86 83 78 75 76 78 77 72 70 70
248 234 154 122 101 95 95 97 112 105 94 88 93 91 86 82 95 112 119 116 112 108 105 106 102 100 96 93 91 89 88 91 90 86 92 95 93 93 92 90 85 80 77 77 78 77 74 70 67
218 211 157 130 114 109 109 114 119 99 93 94 98 94 84 106 116 117 119 111 105 108 111 112 112 98 90 85 87 88 91 92 95 94 90 93 92 92 90 89 87 85 81 80 79 76 74 70 67
290 137 130 128 127 124 110 112 117 108 98 85 93 96 108 122 122 126 121 112 105 105 105 105 113 116 113 90 84 84 88 85 92 98 96 95 91 90 88 87 85 84 81 80 80 80 78 74 68
343 150 135 137 139 122 118 121 85 85 90 92 109 108 116 131 135 133 128 123 114 106 100 95 95 93 101 110 102 94 89 88 91 94 96 105 113 109 103 102 88 82 81 80 78 77 77 76 72
246 171 139 134 141 124 137 132 95 88 113 107 89 80 106 130 140 140 138 133 121 110 102 94 85 80 81 89 108 116 112 104 111 112 120 138 109 102 105 83 84 83 85 83 79 75 77 87 91
202 145 117 115 131 130 140 129 119 134 128 126 122 115 123 139 149 151 148 140 131 124 113 104 96 87 84 83 98 103 107 108 101 95 99 94 89 84 87 99 95 93 97 98 87 83 100 98 85
96 105 107 118 131 144 143 125 121 171 131 125 144 144 145 150 157 159 150 139 127 123 112 105 106 95 88 90 85 89 92 93 90 86 89 89 95 103 96 100 112 109 112 92 99 99 66 63 62
112 96 120 121 134 158 153 144 141 207 28 70 135 145 151 158 161 162 153 141 129 116 107 101 99 103 97 93 96 104 102 96 90 85 83 87 86 83 82 79 79 83 81 69 62 61 64 60 60
125 99 93 109 132 143 136 140 138 77 65 130 142 149 158 163 165 162 159 147 139 126 112 104 110 112 110 101 105 111 103 98 98 86 83 88 91 87 85 82 78 72 72 75 64 62 65 58 52
114 112 105 110 127 137 134 136 139 60 125 144 151 155 162 168 169 166 169 165 150 135 129 125 117 115 119 125 132 111 105 108 84 79 85 91 94 89 82 76 73 69 66 65 63 69 69 61 56
146 134 123 117 132 146 164 141 140 109 155 155 157 159 164 168 171 177 175 174 160 145 137 128 127 123 116 116 116 111 109 102 89 85 84 94 93 87 83 80 80 78 76 76 72 72 67 66 64
183 190 160 114 131 185 222 170 103 137 169 162 159 160 166 168 174 175 171 170 155 154 146 132 140 138 121 116 122 115 108 97 90 90 84 90 93 91 89 91 88 85 81 84 86 74 73 71 65
195 201 176 140 138 215 226 221 105 146 177 171 169 170 172 166 170 164 166 165 158 164 158 153 153 146 133 122 119 111 111 111 101 95 85 86 86 96 102 98 103 105 96 89 88 75 70 74 69
198 209 210 230 133 228 226 224 178 156 183 182 174 172 171 173 168 154 148 151 160 166 171 161 158 157 142 138 134 123 116 115 103 103 96 90 100 110 109 116 119 112 104 93 92 92 89 86 79
234 239 250 288 247 237 233 230 210 166 179 190 184 178 172 166 155 148 147 154 166 165 171 159 162 161 154 157 165 151 143 135 111 83 88 112 128 131 123 132 127 116 103 109 98 99 114 106 92
229 235 244 208 167 246 241 239 208 185 191 202 201 192 184 168 155 149 157 162 174 170 176 169 163 162 164 167 174 163 149 149 109 99 80 105 143 138 139 138 138 135 133 139 128 129 123 119 108
231 246 253 271 258 218 246 215 188 172 175 180 196 202 187 175 168 164 171 171 174 175 180 174 171 171 179 170 162 140 136 163 169 169 160 103 177 166 160 154 152 152 165 157 165 176 173 181 222
239 254 255 244 244 236 253 252 192 190 190 191 194 191 188 178 183 176 173 171 171 172 183 184 177 181 180 183 188 186 198 210 204 200 180 186 205 198 182 177 179 175 176 173 188 194 206 223 225
264 243 238 243 253 250 230 257 190 181 207 208 198 190 188 185 187 183 175 169 163 161 176 194 192 194 190 201 200 211 214 211 191 191 186 199 197 205 197 205 211 204 195 198 204 213 237 240 265
184 195 199 224 242 244 233 254 234 186 248 242 208 199 193 185 179 170 159 157 151 149 163 186 203 207 211 212 209 208 207 204 196 193 198 202 195 207 200 213 229 228 213 207 213 227 235 254 268
218 241 233 225 226 237 204 249 261 38 323 267 235 209 191 181 174 165 158 159 154 158 173 196 209 212 215 217 215 213 209 211 214 213 207 210 209 214 214 213 225 233 227 219 219 227 236 240 246
227 244 255 266 267 257 218 243 133 50 7 304 209 193 183 174 171 169 165 161 165 173 191 202 210 214 218 220 217 212 207 215 228 229 224 212 222 233 225 216 221 220 219 223 222 237 231 242 242
221 227 264 270 275 267 234 223 205 143 154 150 170 183 189 184 181 176 169 166 169 175 188 191 197 200 211 222 218 214 211 209 218 227 221 218 224 241 236 220 223 217 215 224 222 233 230 236 246
255 207 225 249 268 264 252 248 252 208 215 203 216 216 204 195 190 182 176 174 169 158 158 150 187 193 194 212 212 205 216 216 217 216 212 219 223 217 226 227 221 220 211 214 219 229 229 227 231
192 200 229 243 258 270 274 259 29 298 264 249 245 228 209 198 192 187 182 175 159 144 146 146 165 168 177 196 200 199 204 216 217 219 225 234 238 228 230 224 220 218 212 212 213 228 223 227 223
233 233 233 245 245 251 271 279 92 320 299 293 284 255 222 203 190 184 176 166 164 157 156 145 146 142 135 161 169 180 193 203 217 227 230 234 241 236 236 230 226 220 223 222 221 227 230 230 227
Height
1522 1521 1522 1523 1521 1520 1524 1524 1522 1524 1525 1528 1528 1527 1527 1528 1530 1537 1538 1536 1536 1537 1537 1536 1536 1536 1536 1536 1536 1535 1535 1535 1535 1535 1535 1535 1535 1535 1535 1534 1534 1534 1534 1534 1534 1534 1533 1533 1533
1522 1522 1524 1523 1519 1524 1528 1524 1524 1525 1528 1529 1529 1529 1529 1531 1534 1536 1536 1536 1537 1538 1538 1538 1537 1537 1537 1537 1537 1536 1536 1536 1536 1536 1536 1536 1536 1536 1536 1536 1536 1535 1535 1535 1535 1535 1535 1535 1534
1523 1523 1525 1521 1520 1524 1527 1524 1525 1528 1530 1530 1530 1531 1532 1535 1537 1537 1538 1537 1538 1539 1539 1538 1538 1538 1538 1538 1538 1538 1538 1537 1537 1538 1537 1538 1538 1538 1537 1537 1537 1537 1537 1536 1536 1536 1536 1536 1535
1524 1525 1525 1521 1524 1524 1524 1525 1527 1528 1530 1531 1531 1532 1535 1538 1538 1539 1538 1539 1539 1540 1540 1539 1539 1540 1540 1540 1539 1539 1539 1539 1539 1539 1539 1539 1539 1539 1538 1538 1538 1538 1538 1538 1537 1537 1537 1537 1536
1524 1524 1522 1524 1525 1525 1525 1527 1528 1528 1529 1531 1532 1533 1536 1539 1539 1539 1539 1540 1541 1541 1541 1541 1540 1541 1541 1541 1540 1540 1540 1540 1540 1540 1540 1540 1540 1540 1540 1540 1539 1540 1539 1539 1538 1538 1538 1537 1537
1526 1522 1523 1527 1527 1527 1527 1529 1529 1529 1531 1533 1533 1534 1538 1540 1540 1540 1541 1541 1542 1542 1542 1542 1541 1542 1542 1542 1541 1541 1541 1541 1541 1541 1541 1541 1541 1541 1541 1541 1541 1541 1540 1540 1540 1539 1539 1538 1538
1525 1521 1524 1526 1528 1528 1529 1530 1530 1530 1532 1534 1535 1535 1538 1540 1540 1541 1542 1542 1542 1543 1543 1543 1543 1543 1542 1542 1542 1542 1542 1542 1542 1542 1542 1542 1542 1542 1542 1542 1542 1542 1542 1541 1541 1540 1540 1539 1539
1525 1523 1525 1525 1528 1529 1530 1531 1532 1532 1533 1536 1536 1535 1538 1541 1541 1542 1542 1543 1543 1544 1544 1544 1544 1545 1544 1544 1543 1543 1543 1543 1543 1543 1543 1543 1543 1543 1543 1543 1543 1543 1543 1542 1542 1541 1541 1540 1540
1526 1525 1526 1527 1528 1529 1530 1531 1533 1534 1534 1536 1536 1537 1539 1540 1541 1543 1544 1544 1545 1545 1545 1545 1545 1545 1545 1545 1544 1544 1544 1544 1544 1544 1544 1544 1545 1546 1545 1545 1544 1544 1544 1543 1543 1542 1542 1541 1541
1526 1524 1526 1526 1526 1528 1530 1531 1533 1534 1534 1536 1537 1538 1539 1540 1542 1543 1544 1545 1546 1546 1546 1546 1546 1546 1546 1546 1546 1546 1546 1546 1546 1546 1546 1546 1546 1547 1546 1545 1545 1545 1545 1544 1544 1544 1543 1543 1543
1526 1525 1526 1528 1529 1530 1531 1532 1533 1533 1533 1535 1537 1538 1539 1541 1542 1544 1545 1545 1546 1546 1546 1546 1547 1547 1547 1547 1547 1547 1547 1546 1547 1547 1547 1547 1548 1548 1547 1547 1547 1546 1546 1546 1545 1545 1545 1545 1544
1527 1527 1528 1529 1530 1531 1531 1532 1534 1534 1536 1537 1537 1538 1539 1541 1542 1544 1545 1546 1547 1547 1547 1547 1547 1547 1548 1548 1548 1548 1548 1548 1548 1548 1549 1548 1548 1548 1548 1548 1548 1547 1547 1546 1546 1546 1545 1545 1545
1527 1528 1530 1530 1531 1532 1532 1533 1534 1535 1536 1537 1537 1539 1540 1541 1542 1544 1545 1546 1547 1547 1547 1547 1547 1548 1548 1548 1548 1549 1549 1549 1549 1549 1549 1549 1549 1549 1549 1548 1548 1548 1548 1547 1547 1547 1546 1545 1545
1528 1529 1530 1530 1531 1532 1532 1533 1535 1535 1536 1537 1538 1539 1540 1541 1542 1544 1545 1546 1547 1548 1548 1548 1548 1548 1548 1548 1549 1549 1549 1549 1549 1549 1549 1549 1549 1549 1549 1549 1548 1548 1548 1547 1547 1547 1546 1546 1545
1529 1528 1529 1530 1531 1532 1532 1533 1534 1536 1536 1537 1538 1539 1540 1541 1542 1544 1545 1546 1547 1548 1548 1548 1548 1548 1548 1549 1549 1549 1549 1549 1549 1549 1550 1550 1549 1549 1549 1549 1549 1548 1548 1548 1548 1547 1547 1546 1545
1527 1527 1529 1530 1531 1532 1533 1534 1533 1535 1536 1536 1537 1538 1540 1541 1542 1543 1544 1545 1546 1547 1548 1548 1548 1548 1548 1548 1549 1549 1549 1549 1549 1549 1549 1549 1549 1549 1548 1548 1548 1548 1548 1548 1548 1547 1547 1546 1546
1526 1528 1530 1530 1530 1530 1530 1532 1532 1535 1535 1535 1536 1537 1539 1540 1541 1542 1543 1544 1545 1546 1547 1547 1548 1548 1548 1548 1548 1549 1549 1549 1549 1549 1549 1549 1549 1549 1549 1548 1548 1548 1548 1548 1548 1548 1547 1546 1546
1529 1527 1529 1529 1529 1530 1529 1530 1531 1534 1534 1534 1536 1536 1538 1539 1540 1542 1543 1543 1544 1545 1546 1547 1547 1547 1548 1548 1548 1548 1548 1549 1548 1548 1548 1548 1548 1548 1548 1548 1548 1548 1548 1548 1548 1547 1547 1546 1546
1525 1527 1528 1528 1528 1529 1529 1529 1529 1531 1533 1533 1534 1535 1537 1538 1540 1541 1542 1543 1544 1544 1545 1546 1546 1547 1547 1547 1547 1548 1548 1548 1548 1548 1548 1548 1548 1548 1548 1548 1547 1547 1547 1547 1547 1547 1547 1546 1546
1526 1527 1528 1528 1528 1528 1528 1528 1528 1530 1532 1533 1533 1534 1536 1537 1539 1540 1541 1542 1543 1543 1544 1545 1545 1546 1546 1546 1546 1547 1547 1547 1547 1547 1547 1547 1547 1547 1547 1547 1547 1547 1546 1546 1546 1546 1546 1546 1546
1525 1526 1527 1529 1528 1527 1528 1528 1526 1528 1530 1532 1533 1533 1534 1536 1537 1539 1540 1541 1541 1542 1543 1544 1544 1545 1545 1545 1545 1546 1546 1546 1546 1546 1546 1546 1546 1546 1546 1546 1546 1546 1546 1546 1545 1545 1546 1546 1546
1526 1524 1526 1527 1528 1528 1529 1530 1524 1524 1526 1529 1531 1532 1533 1535 1536 1538 1539 1539 1540 1541 1542 1542 1543 1543 1544 1544 1544 1544 1544 1545 1545 1545 1545 1545 1545 1545 1545 1545 1545 1545 1545 1545 1545 1545 1545 1545 1545
1524 1525 1525 1525 1525 1526 1526 1527 1522 1521 1524 1525 1528 1530 1532 1534 1535 1536 1537 1538 1539 1539 1540 1541 1541 1542 1542 1542 1542 1543 1543 1543 1543 1543 1544 1544 1544 1544 1544 1544 1544 1544 1544 1544 1544 1544 1544 1544 1544
1525 1526 1525 1524 1523 1530 1525 1527 1524 1520 1522 1523 1526 1529 1531 1532 1534 1535 1536 1536 1537 1537 1538 1539 1539 1540 1540 1540 1540 1541 1541 1541 1542 1542 1542 1542 1542 1542 1542 1542 1542 1542 1542 1542 1542 1542 1542 1543 1543
1523 1525 1532 1533 1532 1529 1523 1525 1523 1519 1521 1523 1525 1527 1529 1531 1532 1533 1534 1535 1535 1536 1536 1536 1537 1537 1537 1538 1538 1539 1539 1539 1540 1540 1540 1540 1541 1541 1540 1540 1540 1541 1541 1541 1541 1541 1541 1541 1541
1521 1522 1532 1539 1535 1526 1524 1524 1520 1521 1523 1525 1526 1527 1528 1530 1531 1532 1533 1533 1534 1534 1534 1534 1534 1535 1535 1536 1536 1536 1537 1537 1538 1538 1539 1539 1539 1539 1539 1539 1539 1539 1539 1539 1539 1539 1539 1539 1540
1521 1522 1522 1525 1527 1529 1522 1520 1519 1520 1522 1524 1525 1526 1527 1528 1530 1530 1531 1532 1532 1532 1532 1532 1532 1533 1533 1533 1534 1534 1535 1535 1536 1536 1537 1537 1537 1537 1537 1537 1537 1537 1537 1537 1537 1537 1537 1537 1538
1521 1521 1524 1526 1534 1532 1526 1522 1519 1519 1519 1521 1523 1524 1526 1527 1528 1529 1529 1530 1531 1531 1531 1531 1531 1531 1531 1531 1532 1532 1532 1533 1533 1534 1535 1535 1535 1535 1535 1535 1535 1535 1535 1535 1535 1535 1535 1535 1535
1522 1523 1522 1523 1525 1530 1531 1524 1515 1516 1518 1520 1521 1523 1524 1525 1526 1527 1528 1528 1529 1529 1529 1529 1529 1529 1529 1529 1530 1530 1530 1531 1531 1532 1532 1533 1533 1533 1533 1533 1533 1533 1532 1532 1532 1533 1533 1533 1533
1519 1519 1520 1526 1526 1525 1526 1524 1515 1517 1519 1520 1521 1522 1523 1524 1525 1526 1526 1527 1527 1528 1528 1528 1528 1528 1528 1528 1528 1528 1528 1529 1529 1530 1530 1531 1531 1531 1531 1531 1531 1531 1530 1530 1530 1530 1530 1531 1531